Вернуться в каталог

SL-12 DEB

АктивенUNKNOWN
NORAD 21752·DEBRIS·🇷🇺 Russia

Запущен Dec 29, 1983 с Baikonur Cosmodrome

Loading…

Ближайшие Пролёты (ближайшие 24 часа)

TLE

СвежийSource: Space-Track

Эпоха: Sep 1, 2026, 15:08 UTC

1 21752U 83127J   26244.63089387  .00014474  00000-0  35565-1 0  9995
2 21752  54.0239 333.9401 1069994 311.5917  39.7904 11.95340186303253

Отслеживайте SL-12 DEB в реальном времени с AllMySat

Download on the App Store